Flag for Japan Weather past 2 weeks in Fukuoka, Japan

Now
75 °F

Light rain. Partly sunny.


Feels Like: 77 °F
Forecast: 71 / 77 °F
Wind: 7 mph from Northeast

Location: Fukuoka Airport

Current Time: Jul 6, 2015 at 6:36:18 PM

Latest Report: Jul 6, 2015 at 6:00 PM


Visibility: N/A

Pressure: 29.80 "Hg

Humidity: 74%

Dew point: 66 °F

Location of FukuokaLocation

Historic Weather in Fukuoka — Graph

°F

Fukuoka temperature yesterday

Maximum temperature yesterday: 79 °F (at 12:30 PM)
Minimum temperature yesterday: 66 °F (at 12:00 AM)
Average temperature yesterday: 71 °F

Past Weeks' High & Low Weather Summary

 TemperatureHumidityPressure
High86 °F (Jun 29, 3:00 PM)94% (Jun 24, 9:30 PM)29.89 "Hg (Jun 24, 9:30 PM)
Low63 °F (Jun 29, 5:30 AM)45% (Jun 29, 5:00 PM)29.24 "Hg (Jul 1, 3:00 AM)
Average74 °F77%29.69 "Hg
* Reported Jun 21 5:00 PM — Jul 6 5:30 PM, Fukuoka, Weather by CustomWeather, © 2015

Note: Actual official high and low records may vary slightly from our data, if they occured in-between our weather recording intervals... More about our weather records

Advertising

Fukuoka weather history for previous 24 hours

 ConditionsComfort  
Time TempWeatherWind HumidityBarometerVisibility
5:30 PM
Mon, Jul 6
75 °FLight rain. Partly sunny.10 mph74%29.80 "HgN/A
5:00 PM77 °FLight rain. Partly sunny.12 mph65%29.80 "HgN/A
4:30 PM79 °FLight rain. Partly sunny.8 mph61%29.77 "HgN/A
4:00 PM79 °FLight rain. Broken clouds.7 mph61%29.77 "HgN/A
3:30 PM81 °FLight rain. Broken clouds.7 mph54%29.77 "HgN/A
3:00 PM81 °FPartly sunny.5 mph58%29.77 "HgN/A
2:30 PM81 °FPartly sunny.8 mph54%29.77 "HgN/A
2:00 PM79 °FBroken clouds.8 mph58%29.77 "HgN/A
1:30 PM81 °FPartly sunny.10 mph58%29.80 "HgN/A
1:00 PM81 °FPartly sunny.9 mph58%29.80 "HgN/A
12:30 PM79 °FBroken clouds.10 mph58%29.80 "HgN/A
12:00 PM77 °FBroken clouds.2 mph61%29.80 "HgN/A
11:30 AM75 °FPartly sunny.7 mph69%29.83 "HgN/A
11:00 AM75 °FPartly sunny.8 mph69%29.80 "HgN/A
10:30 AM75 °FLight rain. Broken clouds.8 mph69%29.83 "HgN/A
10:00 AM75 °FBroken clouds.5 mph74%29.83 "HgN/A
9:30 AM73 °FBroken clouds.5 mph74%29.83 "HgN/A
9:00 AM73 °FPartly sunny.8 mph74%29.83 "HgN/A
8:30 AM72 °FPartly sunny.1 mph83%29.83 "HgN/A
8:00 AM70 °FPartly sunny.3 mph88%29.83 "HgN/A
7:30 AM70 °FPartly sunny.3 mph88%29.83 "HgN/A
7:00 AM70 °FPartly sunny.1 mph83%29.83 "HgN/A
6:30 AM70 °FPartly sunny.3 mph83%29.83 "HgN/A
6:00 AM70 °FPartly sunny.2 mph83%29.83 "HgN/A
5:30 AM70 °FPartly sunny.2 mph83%29.83 "HgN/A
4:30 AM70 °FPassing clouds.1 mph83%29.83 "HgN/A
4:00 AM70 °FPartly cloudy.1 mph88%29.83 "HgN/A
3:30 AM70 °FPartly cloudy.1 mph88%29.83 "HgN/A
3:00 AM70 °FPartly cloudy.3 mph88%29.83 "HgN/A
2:30 AM70 °FPartly cloudy.3 mph88%29.80 "HgN/A
2:00 AM70 °FPartly cloudy.5 mph88%29.80 "HgN/A
1:30 AM70 °FPartly cloudy.6 mph88%29.83 "HgN/A
1:00 AM70 °FPartly cloudy.2 mph88%29.83 "HgN/A
12:30 AM70 °FPartly cloudy.2 mph88%29.83 "HgN/A
12:00 AM72 °FPartly cloudy.2 mph83%29.83 "HgN/A
11:30 PM
Sun, Jul 5
72 °FLight rain. Partly cloudy.3 mph83%29.83 "HgN/A
11:00 PM72 °FLight rain. Partly cloudy.3 mph83%29.83 "HgN/A
10:30 PM72 °FLight rain. Passing clouds.6 mph83%29.83 "HgN/A
10:00 PM73 °FLight rain. Passing clouds.1 mph74%29.83 "HgN/A
9:30 PM73 °FLight rain. Passing clouds.5 mph74%29.80 "HgN/A
9:00 PM72 °FPassing clouds.2 mph83%29.80 "HgN/A
8:30 PM72 °FPassing clouds.5 mph78%29.80 "HgN/A
8:00 PM73 °FPassing clouds.3 mph74%29.83 "HgN/A
7:30 PM73 °FBroken clouds.2 mph74%29.83 "HgN/A
7:00 PM73 °FPartly sunny.3 mph74%29.80 "HgN/A
6:30 PM73 °FPartly sunny.3 mph74%29.80 "HgN/A
6:00 PM73 °FPartly sunny.6 mph74%29.80 "HgN/A
Weather by CustomWeather, © 2015

See weather overviewHow to use our weather pages